This is the latest recevied weather packets stored in our database for station/object EA2RCU-15. If no packets are shown the sender has not sent any weather packets the latest 1 day(s).
| Time | Temp. | Humidity | Pressure | Rain* | Wind** | Luminosity | Snow |
|---|---|---|---|---|---|---|---|
| 1777994405 | 18.89° C | 46% | 997 hPa | 0 mm | 0 m/s | - | - |
| 1777994105 | 18.33° C | 47% | 997 hPa | 0 mm | 0 m/s | - | - |
| 1777993804 | 18.33° C | 50% | 997 hPa | 0 mm | 0 m/s | - | - |
| 1777993504 | 17.22° C | 53% | 997 hPa | 0 mm | 0 m/s | - | - |
| 1777993204 | 16.67° C | 54% | 997 hPa | 0 mm | 0 m/s | - | - |
| 1777992904 | 16.11° C | 58% | 997 hPa | 0 mm | 0 m/s | - | - |
| 1777992604 | 16.11° C | 57% | 997 hPa | 1.02 mm | 0 m/s | - | - |
| 1777992304 | 16.11° C | 58% | 997 hPa | 1.02 mm | 0 m/s | - | - |
| 1777992004 | 15.56° C | 60% | 997 hPa | 1.02 mm | 0 m/s | - | - |
| 1777991704 | 15.56° C | 59% | 997 hPa | 1.02 mm | 0 m/s | - | - |
| 1777991404 | 15.56° C | 60% | 997 hPa | 1.02 mm | 0 m/s | - | - |
| 1777991104 | 15.56° C | 62% | 996 hPa | 1.02 mm | 0 m/s | - | - |
| 1777990805 | 15.56° C | 64% | 996 hPa | 1.02 mm | 0 m/s | - | - |
| 1777990504 | 15° C | 66% | 996 hPa | 1.02 mm | 0 m/s | - | - |
| 1777990207 | 15° C | 67% | 997 hPa | 2.03 mm | 0 m/s | - | - |
| 1777989906 | 14.44° C | 66% | 997 hPa | 2.03 mm | 0 m/s | - | - |
| 1777989606 | 14.44° C | 64% | 997 hPa | 2.03 mm | 0 m/s | - | - |
| 1777989306 | 14.44° C | 60% | 997 hPa | 2.03 mm | 0 m/s | - | - |
| 1777989006 | 15° C | 57% | 997 hPa | 1.02 mm | 0 m/s | - | - |
| 1777988707 | 15.56° C | 55% | 997 hPa | 1.02 mm | 0 m/s | - | - |
| 1777988406 | 16.11° C | 54% | 997 hPa | 1.02 mm | 0 m/s | - | - |
| 1777988106 | 16.11° C | 54% | 997 hPa | 1.02 mm | 0 m/s | - | - |
| 1777987806 | 16.67° C | 55% | 997 hPa | 1.02 mm | 0 m/s | - | - |
| 1777987506 | 16.67° C | 55% | 997 hPa | 1.02 mm | 0 m/s | - | - |
| 1777987207 | 16.11° C | 54% | 997 hPa | 1.02 mm | 0 m/s | - | - |
* Rain latest hour (hover to see other rain measurements)
** Current wind speed in m/s (hover to see current wind gust speed)